Location: Cantaing
(50.1487°N, 3.1675°E)
Time: 16:27:16
(UTC+00:00)

ISS - Pass Details

Date: 15 March 2026
Orbit: 416 x 425 km, 51.6° (Epoch: 18 April)

Event Time Altitude Azimuth Distance (km) Brightness Sun altitude
Rises 20:19:24 0° 265° (W) 2,384 1.0 -23.6°
Reaches altitude 10° 20:21:31 10° 268° (W) 1,517 -0.1 -23.9°
Enters shadow 20:23:48 39° 280° (W) 657 -2.4 -24.2°
